N505ZG KSAN-KAVX

Flight info

Callsign N505ZG
Flight time 0h 36m
Altitude 8000
Route CWARD2 CWARD AVOLS SXC
Aircraft C208/L-SDFGR/C

Departure

Time 2026-05-04 19:30
Airport San Diego International Airport (KSAN)

Arrival

Time 2026-05-04 20:06
Airport Catalina Airport (KAVX)
Time Latitude Longitude Altitude Speed Heading
2026-05-04 19:19 32.73328 -117.17749 19 ft 0 kts 304°
2026-05-04 19:24 32.73339 -117.17798 19 ft 11 kts 283°
2026-05-04 19:24 32.73347 -117.17833 19 ft 5 kts 283°
2026-05-04 19:24 32.73349 -117.17847 19 ft 3 kts 282°
2026-05-04 19:24 32.73358 -117.17920 20 ft 12 kts 261°
2026-05-04 19:25 32.73304 -117.17965 21 ft 10 kts 192°
2026-05-04 19:25 32.73233 -117.17965 18 ft 12 kts 136°
2026-05-04 19:25 32.73199 -117.17839 18 ft 17 kts 108°
2026-05-04 19:25 32.73166 -117.17709 19 ft 17 kts 107°
2026-05-04 19:26 32.73138 -117.17593 18 ft 7 kts 116°
2026-05-04 19:26 32.73125 -117.17575 18 ft 0 kts 140°
2026-05-04 19:26 32.73108 -117.17559 18 ft 6 kts 144°
2026-05-04 19:26 32.73096 -117.17549 18 ft 0 kts 144°
2026-05-04 19:27 32.73092 -117.17546 18 ft 5 kts 144°
2026-05-04 19:27 32.73018 -117.17570 19 ft 16 kts 290°
2026-05-04 19:27 32.73024 -117.17589 18 ft 0 kts 286°
2026-05-04 19:28 32.73024 -117.17590 18 ft 0 kts 286°
2026-05-04 19:29 32.73039 -117.17651 17 ft 25 kts 287°
2026-05-04 19:29 32.73135 -117.18060 17 ft 74 kts 285°
2026-05-04 19:29 32.73288 -117.18735 163 ft 91 kts 287°
2026-05-04 19:29 32.73481 -117.19450 484 ft 93 kts 290°
2026-05-04 19:30 32.73689 -117.20198 788 ft 97 kts 286°
2026-05-04 19:30 32.74051 -117.20915 1111 ft 108 kts 308°
2026-05-04 19:30 32.74568 -117.21597 1446 ft 111 kts 306°
2026-05-04 19:30 32.75053 -117.22290 1902 ft 106 kts 306°
2026-05-04 19:31 32.75511 -117.22964 2379 ft 102 kts 297°
2026-05-04 19:31 32.75807 -117.23702 2839 ft 96 kts 292°
2026-05-04 19:31 32.76103 -117.24416 3267 ft 96 kts 293°
2026-05-04 19:31 32.76412 -117.25100 3685 ft 95 kts 295°
2026-05-04 19:32 32.76743 -117.25783 4100 ft 94 kts 298°
2026-05-04 19:32 32.77069 -117.26428 4514 ft 87 kts 297°
2026-05-04 19:32 32.77388 -117.27051 4788 ft 92 kts 299°
2026-05-04 19:32 32.77728 -117.27708 5046 ft 94 kts 299°
2026-05-04 19:33 32.78075 -117.28367 5332 ft 93 kts 300°
2026-05-04 19:33 32.78411 -117.29008 5631 ft 90 kts 299°
2026-05-04 19:33 32.78707 -117.29569 5876 ft 90 kts 300°
2026-05-04 19:33 32.79047 -117.30217 6100 ft 96 kts 300°
2026-05-04 19:34 32.79408 -117.30901 6337 ft 99 kts 300°
2026-05-04 19:34 32.79787 -117.31614 6585 ft 103 kts 301°
2026-05-04 19:34 32.80235 -117.32296 6815 ft 108 kts 304°
2026-05-04 19:34 32.80704 -117.33026 7050 ft 114 kts 303°
2026-05-04 19:35 32.81198 -117.33794 7296 ft 122 kts 304°
2026-05-04 19:35 32.81739 -117.34628 7544 ft 129 kts 304°
2026-05-04 19:35 32.82292 -117.35484 7775 ft 134 kts 303°
2026-05-04 19:35 32.82862 -117.36368 7988 ft 137 kts 303°
2026-05-04 19:36 32.83469 -117.37312 8001 ft 149 kts 303°
2026-05-04 19:36 32.84106 -117.38297 8000 ft 154 kts 303°
2026-05-04 19:36 32.84770 -117.39325 8001 ft 157 kts 303°
2026-05-04 19:36 32.85440 -117.40361 8000 ft 158 kts 303°
2026-05-04 19:37 32.86102 -117.41389 7993 ft 158 kts 303°
2026-05-04 19:37 32.86774 -117.42434 7987 ft 159 kts 304°
2026-05-04 19:37 32.87448 -117.43479 7991 ft 159 kts 303°
2026-05-04 19:37 32.88125 -117.44530 7990 ft 159 kts 303°
2026-05-04 19:38 32.88793 -117.45569 7989 ft 159 kts 303°
2026-05-04 19:38 32.89472 -117.46623 7987 ft 159 kts 303°
2026-05-04 19:38 32.90138 -117.47659 7990 ft 159 kts 303°
2026-05-04 19:38 32.90814 -117.48709 7992 ft 160 kts 303°
2026-05-04 19:39 32.91492 -117.49765 7988 ft 160 kts 303°
2026-05-04 19:39 32.92167 -117.50817 7988 ft 159 kts 303°
2026-05-04 19:39 32.92834 -117.51854 7986 ft 159 kts 303°
2026-05-04 19:39 32.93509 -117.52905 7984 ft 159 kts 303°
2026-05-04 19:40 32.94183 -117.53954 7983 ft 159 kts 303°
2026-05-04 19:40 32.94848 -117.54992 7986 ft 159 kts 303°
2026-05-04 19:40 32.95521 -117.56040 7986 ft 159 kts 303°
2026-05-04 19:40 32.96190 -117.57082 7985 ft 158 kts 303°
2026-05-04 19:41 32.96851 -117.58113 7989 ft 158 kts 303°
2026-05-04 19:41 32.97528 -117.59168 7987 ft 159 kts 303°
2026-05-04 19:41 32.98199 -117.60216 7988 ft 159 kts 303°
2026-05-04 19:41 32.98871 -117.61263 7988 ft 159 kts 303°
2026-05-04 19:42 32.99542 -117.62312 7987 ft 159 kts 303°
2026-05-04 19:42 33.00207 -117.63350 7985 ft 159 kts 303°
2026-05-04 19:42 33.00879 -117.64399 7984 ft 159 kts 303°
2026-05-04 19:42 33.01550 -117.65447 7987 ft 159 kts 304°
2026-05-04 19:43 33.02220 -117.66495 7988 ft 159 kts 303°
2026-05-04 19:43 33.02891 -117.67545 7984 ft 159 kts 303°
2026-05-04 19:43 33.03565 -117.68596 7982 ft 160 kts 303°
2026-05-04 19:43 33.04241 -117.69654 7983 ft 160 kts 303°
2026-05-04 19:44 33.04908 -117.70697 7982 ft 159 kts 303°
2026-05-04 19:44 33.05580 -117.71749 7982 ft 159 kts 303°
2026-05-04 19:44 33.06254 -117.72798 7980 ft 159 kts 305°
2026-05-04 19:44 33.07076 -117.73705 7974 ft 162 kts 316°
2026-05-04 19:45 33.07941 -117.74562 7973 ft 162 kts 315°
2026-05-04 19:45 33.08797 -117.75431 7975 ft 161 kts 315°
2026-05-04 19:45 33.09654 -117.76303 7975 ft 162 kts 315°
2026-05-04 19:45 33.10500 -117.77164 7974 ft 162 kts 315°
2026-05-04 19:46 33.11358 -117.78037 7976 ft 162 kts 315°
2026-05-04 19:46 33.12217 -117.78909 7975 ft 162 kts 315°
2026-05-04 19:46 33.13077 -117.79785 7975 ft 162 kts 315°
2026-05-04 19:46 33.13934 -117.80658 7975 ft 162 kts 315°
2026-05-04 19:47 33.14791 -117.81530 7974 ft 162 kts 315°
2026-05-04 19:47 33.15649 -117.82403 7974 ft 162 kts 315°
2026-05-04 19:47 33.16509 -117.83279 7975 ft 163 kts 315°
2026-05-04 19:47 33.17372 -117.84158 7974 ft 162 kts 315°
2026-05-04 19:48 33.18219 -117.85024 7974 ft 162 kts 315°
2026-05-04 19:48 33.19077 -117.85887 8024 ft 157 kts 317°
2026-05-04 19:48 33.20048 -117.86384 8123 ft 151 kts 342°
2026-05-04 19:48 33.21106 -117.86632 7904 ft 158 kts 341°
2026-05-04 19:49 33.22207 -117.86916 7653 ft 164 kts 342°
2026-05-04 19:49 33.23331 -117.87191 7412 ft 167 kts 343°
2026-05-04 19:49 33.24478 -117.87477 7170 ft 170 kts 343°
2026-05-04 19:49 33.25244 -117.87665 7009 ft 169 kts 343°
2026-05-04 19:50 33.26393 -117.87948 6767 ft 168 kts 343°
2026-05-04 19:50 33.27887 -117.88319 6441 ft 160 kts 344°
2026-05-04 19:50 33.28943 -117.88579 6170 ft 151 kts 343°
2026-05-04 19:50 33.29624 -117.88748 5991 ft 148 kts 343°
2026-05-04 19:51 33.30632 -117.89001 5719 ft 146 kts 343°
2026-05-04 19:51 33.31609 -117.89246 5461 ft 144 kts 343°
2026-05-04 19:51 33.32586 -117.89489 5203 ft 143 kts 343°
2026-05-04 19:51 33.33560 -117.89731 4978 ft 141 kts 344°
2026-05-04 19:52 33.34480 -117.89958 4966 ft 129 kts 343°
2026-05-04 19:52 33.35335 -117.90173 4957 ft 122 kts 342°
2026-05-04 19:52 33.36144 -117.90379 4960 ft 119 kts 342°
2026-05-04 19:52 33.36948 -117.90581 4960 ft 117 kts 342°
2026-05-04 19:53 33.37720 -117.90853 4957 ft 114 kts 323°
2026-05-04 19:53 33.38183 -117.91565 4965 ft 108 kts 287°
2026-05-04 19:53 33.38358 -117.92433 4965 ft 109 kts 282°
2026-05-04 19:53 33.38546 -117.93325 4969 ft 111 kts 283°
2026-05-04 19:54 33.38733 -117.94224 4971 ft 111 kts 282°
2026-05-04 19:54 33.38919 -117.95120 4971 ft 110 kts 283°
2026-05-04 19:54 33.39107 -117.96012 4972 ft 110 kts 283°
2026-05-04 19:54 33.39300 -117.96938 4984 ft 124 kts 282°
2026-05-04 19:55 33.39523 -117.98012 4983 ft 139 kts 283°
2026-05-04 19:55 33.39761 -117.99153 4984 ft 147 kts 283°
2026-05-04 19:55 33.40010 -118.00362 4982 ft 152 kts 283°
2026-05-04 19:55 33.40266 -118.01608 4981 ft 155 kts 282°
2026-05-04 19:56 33.40522 -118.02870 4977 ft 156 kts 282°
2026-05-04 19:56 33.40780 -118.04134 4976 ft 156 kts 282°
2026-05-04 19:56 33.41038 -118.05395 4980 ft 156 kts 282°
2026-05-04 19:56 33.41294 -118.06654 4985 ft 155 kts 282°
2026-05-04 19:57 33.41545 -118.07896 4987 ft 155 kts 282°
2026-05-04 19:57 33.41800 -118.09154 4984 ft 155 kts 282°
2026-05-04 19:57 33.42057 -118.10408 4985 ft 155 kts 282°
2026-05-04 19:57 33.42315 -118.11668 4983 ft 156 kts 283°
2026-05-04 19:58 33.42570 -118.12932 4982 ft 155 kts 283°
2026-05-04 19:58 33.42822 -118.14186 4988 ft 155 kts 282°
2026-05-04 19:58 33.43077 -118.15437 4985 ft 155 kts 282°
2026-05-04 19:58 33.43337 -118.16689 4988 ft 155 kts 282°
2026-05-04 19:59 33.43596 -118.17927 4987 ft 155 kts 283°
2026-05-04 19:59 33.43857 -118.19179 4987 ft 152 kts 283°
2026-05-04 19:59 33.44102 -118.20345 4975 ft 132 kts 283°
2026-05-04 19:59 33.44367 -118.21356 4828 ft 125 kts 288°
2026-05-04 20:00 33.44721 -118.22273 4707 ft 120 kts 296°
2026-05-04 20:00 33.45122 -118.23140 4598 ft 116 kts 295°
2026-05-04 20:00 33.45486 -118.23987 4436 ft 117 kts 294°
2026-05-04 20:00 33.45869 -118.24851 4315 ft 114 kts 298°
2026-05-04 20:01 33.46249 -118.25654 4259 ft 109 kts 294°
2026-05-04 20:01 33.46569 -118.26483 4167 ft 111 kts 291°
2026-05-04 20:01 33.46831 -118.27340 4116 ft 109 kts 277°
2026-05-04 20:01 33.46838 -118.28236 4016 ft 110 kts 263°
2026-05-04 20:02 33.46672 -118.29154 3964 ft 112 kts 257°
2026-05-04 20:02 33.46418 -118.30028 3860 ft 115 kts 244°
2026-05-04 20:02 33.46015 -118.30866 3735 ft 115 kts 240°
2026-05-04 20:02 33.45626 -118.31694 3666 ft 114 kts 245°
2026-05-04 20:03 33.45268 -118.32541 3705 ft 112 kts 245°
2026-05-04 20:03 33.44935 -118.33396 3735 ft 113 kts 246°
2026-05-04 20:03 33.44595 -118.34239 3754 ft 115 kts 244°
2026-05-04 20:03 33.44182 -118.35082 3607 ft 118 kts 238°
2026-05-04 20:04 33.43729 -118.35913 3397 ft 119 kts 239°
2026-05-04 20:04 33.43290 -118.36700 3173 ft 107 kts 237°
2026-05-04 20:04 33.42850 -118.37381 2868 ft 102 kts 235°
2026-05-04 20:04 33.42462 -118.38064 2651 ft 94 kts 239°
2026-05-04 20:05 33.42143 -118.38687 2400 ft 83 kts 244°
2026-05-04 20:05 33.41863 -118.39258 2180 ft 77 kts 237°
2026-05-04 20:05 33.41550 -118.39761 1961 ft 72 kts 239°
2026-05-04 20:05 33.41230 -118.40238 1794 ft 76 kts 232°
2026-05-04 20:06 33.40952 -118.40798 1647 ft 75 kts 238°
2026-05-04 20:06 33.40691 -118.41248 1574 ft 63 kts 238°
2026-05-04 20:06 33.40508 -118.41564 1593 ft 18 kts 244°
2026-05-04 20:06 33.40459 -118.41647 1598 ft 17 kts 236°
2026-05-04 20:07 33.40397 -118.41719 1601 ft 8 kts 155°
2026-05-04 20:07 33.40346 -118.41619 1597 ft 14 kts 107°
2026-05-04 20:07 33.40332 -118.41546 1597 ft 0 kts 56°